Regional Weather Roundup
Issued by NWS

Home | Current Version | Previous Version | Text Only | Print | Product List | Glossary On
Versions: 1 2 3 4 5 6 7 8 9 10 11 12 13 14 15 16 17 18 19 20 21 22 23 24 25 26 27 28 29 30 31 32 33 34 35 36 37 38 39 40 41 42 43 44 45 46 47 48 49 50
000
ASUS44 KMEG 250410
RWRTN
TENNESSEE HOURLY STATE WEATHER ROUNDUP
NATIONAL WEATHER SERVICE MEMPHIS TN
1100 PM CDT WED MAY 24 2017

TNZ002-004-019-021-049-052-054-088>092-250500-
WEST TENNESSEE

CITY           SKY/WX    TMP DP  RH WIND       PRES   REMARKS
MEMPHIS INTL   MOCLDY    58  51  78 W6        29.66R
NWS MEMPHIS      N/A     54 N/A N/A MISG        N/A
JACKSON        CLOUDY    57  51  80 SW6       29.64R
DYERSBURG        N/A    N/A N/A N/A MISG        N/A
COVINGTON      CLEAR     57  52  82 W7        29.64S
UNION CITY     CLEAR     57  50  77 W6        29.60S
BOLIVAR        CLEAR     54  50  87 CALM      29.64S
PARIS          PTCLDY    54  52  94 SW6       29.59R
HUNTINGDON     MOCLDY    55  52  88 W3        29.61R
LEXINGTON      MOCLDY    57  52  82 MISG      29.62R
SELMER         MOCLDY    54  54 100 W6        29.64R
SAVANNAH       MOCLDY    55  55 100 SW5       29.63R
$$

TNZ008-025-027-028-033-062-065-066-250500-
NORTH MIDDLE TENNESSEE

CITY           SKY/WX    TMP DP  RH WIND       PRES   REMARKS
NASHVILLE      CLOUDY    58  55  90 VRB5      29.59R
PORTLAND       CLOUDY    55  52  88 SW5       29.57R
CLARKSVILLE    CLOUDY    57  55  93 SW3       29.58R
SMYRNA         MOCLDY    56  55  97 S3        29.60R
COOKEVILLE     MOCLDY    52  52 100 CALM      29.58R
GALLATIN       CLOUDY    57  54  88 CALM      29.60S
CROSSVILLE     CLEAR     49  47  93 SW3       29.60R
$$

TNZ061-075-076-078-094-096-097-250500-
SOUTH MIDDLE TENNESSEE

CITY           SKY/WX    TMP DP  RH WIND       PRES   REMARKS
FAYETTEVILLE   CLOUDY    55  54  94 SW5       29.62S
TULLAHOMA      CLOUDY    54  52  94 SW3       29.62S
WINCHESTER     CLOUDY    55  54  94 W6          N/A
COLUMBIA       MOCLDY    55  54  94 SW3       29.59S
SHELBYVILLE    MOCLDY    55  55 100 SW5       29.61S
$$

TNZ017-018-042-046-047-250500-
NORTHEAST TENNESSEE

CITY           SKY/WX    TMP DP  RH WIND       PRES   REMARKS
TRI CITIES     CLOUDY    60  58  92 CALM      29.54R
ELIZABETHTON   CLOUDY    61  59  94 CALM      29.54R
$$

TNZ012-013-036-069-073-074-250500-
CENTRAL EAST TENNESSEE

CITY           SKY/WX    TMP DP  RH WIND       PRES   REMARKS
KNOXVILLE      PTCLDY    57  48  72 W10       29.58R
OAK RIDGE      PTCLDY    57  49  74 VRB5      29.59R
DOWNTOWN KNOXV CLEAR     57  52  82 W8        29.58R
GATLINBURG     CLOUDY    59  48  67 W8        29.57R
MORRISTOWN     CLOUDY    59  52  77 W10       29.55S
JACKSBORO      CLEAR     55  48  76 SW6       29.59R
$$

TNZ083-085-099-250500-
SOUTHEAST TENNESSEE

CITY           SKY/WX    TMP DP  RH WIND       PRES   REMARKS
CHATTANOOGA    MOCLDY    57  53  86 CALM      29.60R
$$

SKY/WX REPORTED AS FAIR MEANS FEW OR NO CLOUDS BELOW
12 THOUSAND FEET.





USA.gov is the U.S. government's official web portal to all federal, state and local government web resources and services.